Precipitable_Water
0.23 0.16 0.15 0.14 0.15 0.16 0.17 0.18 0.17 0.18 0.19 0.18 0.18 0.18 0.17 0.18 0.19 0.22 0.22 0.25 0.26 0.22 0.19 0.19 0.18 0.18 0.18 0.19 0.21 0.22 0.24 0.24 0.25 0.25 0.27 0.27 0.27 0.27 0.27 0.27 0.28 0.27 0.28 0.28 0.28 0.28 0.28 0.28 0.28 0.28 0.29 0.28 0.29 0.28 0.28 0.28 0.28 0.28 0.28 0.29 0.29 0.28 0.28 0.29 0.28 0.28 0.28 0.28 0.28 0.28 0.29 0.29 0.29 0.28 0.29 0.28 0.29 0.29 0.29 0.28 0.28 0.28 0.28 0.29 0.30 0.31
0.20 0.13 0.15 0.18 0.20 0.19 0.17 0.19 0.18 0.15 0.18 0.18 0.17 0.17 0.16 0.18 0.17 0.22 0.21 0.25 0.26 0.20 0.17 0.18 0.17 0.18 0.20 0.22 0.23 0.25 0.26 0.25 0.26 0.27 0.27 0.26 0.27 0.27 0.27 0.27 0.27 0.27 0.28 0.28 0.27 0.27 0.27 0.27 0.27 0.27 0.27 0.28 0.27 0.27 0.27 0.27 0.26 0.26 0.26 0.27 0.27 0.27 0.27 0.28 0.28 0.27 0.27 0.27 0.26 0.26 0.27 0.27 0.27 0.26 0.25 0.25 0.26 0.26 0.25 0.25 0.24 0.24 0.24 0.24 0.25 0.25
0.12 0.12 0.16 0.20 0.21 0.19 0.18 0.16 0.15 0.13 0.13 0.14 0.14 0.15 0.14 0.17 0.21 0.23 0.23 0.24 0.24 0.21 0.17 0.20 0.19 0.20 0.21 0.22 0.23 0.23 0.23 0.24 0.25 0.25 0.24 0.24 0.24 0.24 0.24 0.24 0.24 0.25 0.25 0.25 0.25 0.26 0.25 0.26 0.26 0.26 0.26 0.26 0.26 0.25 0.25 0.25 0.25 0.25 0.25 0.25 0.25 0.25 0.24 0.25 0.25 0.25 0.25 0.25 0.25 0.25 0.25 0.26 0.26 0.25 0.24 0.23 0.23 0.24 0.24 0.23 0.23 0.22 0.22 0.22 0.22 0.22
0.09 0.11 0.14 0.18 0.19 0.16 0.14 0.15 0.16 0.16 0.16 0.14 0.15 0.15 0.14 0.17 0.16 0.15 0.22 0.23 0.24 0.22 0.19 0.19 0.17 0.16 0.18 0.19 0.18 0.20 0.21 0.21 0.21 0.21 0.22 0.22 0.22 0.22 0.22 0.22 0.22 0.22 0.21 0.21 0.20 0.20 0.21 0.22 0.23 0.24 0.24 0.24 0.24 0.23 0.23 0.23 0.23 0.22 0.22 0.22 0.22 0.22 0.22 0.22 0.22 0.22 0.21 0.22 0.21 0.21 0.21 0.22 0.22 0.21 0.22 0.21 0.21 0.21 0.21 0.21 0.21 0.20 0.20 0.20 0.19 0.19
0.11 0.15 0.19 0.19 0.19 0.17 0.16 0.18 0.17 0.17 0.15 0.18 0.17 0.17 0.16 0.17 0.17 0.16 0.16 0.20 0.21 0.20 0.20 0.17 0.13 0.12 0.15 0.13 0.16 0.19 0.20 0.19 0.20 0.21 0.21 0.22 0.22 0.22 0.21 0.21 0.20 0.19 0.19 0.18 0.18 0.19 0.19 0.20 0.20 0.21 0.21 0.22 0.21 0.21 0.21 0.21 0.21 0.20 0.19 0.19 0.19 0.19 0.18 0.18 0.18 0.17 0.17 0.17 0.17 0.17 0.17 0.17 0.17 0.17 0.17 0.17 0.17 0.17 0.17 0.18 0.18 0.17 0.18 0.18 0.18 0.17
0.15 0.19 0.21 0.19 0.18 0.18 0.17 0.15 0.16 0.15 0.11 0.12 0.13 0.14 0.14 0.15 0.14 0.16 0.17 0.16 0.13 0.12 0.15 0.13 0.08 0.08 0.12 0.13 0.15 0.16 0.17 0.17 0.19 0.19 0.19 0.20 0.20 0.20 0.19 0.19 0.19 0.18 0.18 0.17 0.17 0.17 0.18 0.18 0.19 0.20 0.20 0.19 0.19 0.19 0.19 0.18 0.18 0.18 0.17 0.17 0.16 0.16 0.15 0.14 0.13 0.13 0.13 0.12 0.12 0.12 0.12 0.12 0.12 0.13 0.13 0.14 0.14 0.14 0.14 0.15 0.15 0.15 0.15 0.15 0.15 0.15
0.16 0.18 0.18 0.16 0.15 0.14 0.12 0.09 0.11 0.11 0.06 0.05 0.06 0.14 0.14 0.15 0.15 0.15 0.14 0.15 0.09 0.07 0.12 0.17 0.08 0.06 0.12 0.12 0.14 0.15 0.16 0.16 0.18 0.18 0.19 0.19 0.19 0.19 0.19 0.18 0.17 0.17 0.17 0.17 0.17 0.17 0.17 0.18 0.18 0.18 0.18 0.18 0.17 0.17 0.17 0.16 0.16 0.15 0.14 0.13 0.12 0.11 0.11 0.10 0.11 0.11 0.11 0.11 0.11 0.10 0.11 0.11 0.11 0.11 0.12 0.13 0.13 0.13 0.13 0.13 0.12 0.13 0.13 0.13 0.13 0.13
0.16 0.13 0.13 0.13 0.11 0.09 0.07 0.06 0.09 0.10 0.06 0.04 0.09 0.12 0.14 0.14 0.13 0.14 0.14 0.13 0.11 0.16 0.16 0.16 0.15 0.09 0.08 0.11 0.15 0.15 0.15 0.15 0.17 0.18 0.18 0.18 0.18 0.18 0.18 0.17 0.16 0.16 0.17 0.17 0.17 0.17 0.17 0.18 0.18 0.18 0.18 0.17 0.17 0.17 0.16 0.15 0.14 0.13 0.11 0.10 0.09 0.09 0.09 0.08 0.09 0.09 0.09 0.09 0.09 0.09 0.09 0.09 0.09 0.10 0.10 0.11 0.12 0.12 0.12 0.12 0.11 0.12 0.12 0.12 0.12 0.12
0.12 0.07 0.07 0.08 0.09 0.08 0.07 0.10 0.11 0.11 0.08 0.06 0.08 0.10 0.10 0.12 0.14 0.13 0.13 0.12 0.14 0.13 0.08 0.13 0.17 0.11 0.08 0.11 0.15 0.15 0.12 0.14 0.15 0.16 0.17 0.17 0.18 0.18 0.17 0.16 0.16 0.16 0.17 0.17 0.16 0.16 0.16 0.17 0.18 0.18 0.18 0.18 0.17 0.16 0.15 0.13 0.12 0.11 0.10 0.10 0.09 0.09 0.08 0.08 0.07 0.07 0.07 0.07 0.07 0.07 0.08 0.08 0.08 0.09 0.09 0.10 0.10 0.10 0.10 0.10 0.10 0.10 0.10 0.10 0.10 0.11
0.11 0.10 0.09 0.09 0.08 0.08 0.11 0.12 0.12 0.10 0.06 0.07 0.08 0.11 0.13 0.15 0.14 0.12 0.11 0.12 0.12 0.10 0.05 0.11 0.16 0.09 0.07 0.10 0.11 0.14 0.13 0.13 0.14 0.15 0.16 0.17 0.17 0.16 0.15 0.15 0.16 0.16 0.17 0.17 0.17 0.17 0.17 0.18 0.19 0.19 0.19 0.18 0.17 0.16 0.14 0.12 0.11 0.11 0.10 0.10 0.09 0.08 0.08 0.08 0.07 0.07 0.07 0.07 0.07 0.06 0.06 0.06 0.06 0.07 0.07 0.08 0.08 0.09 0.09 0.09 0.09 0.09 0.09 0.09 0.09 0.10
0.13 0.17 0.17 0.09 0.07 0.10 0.13 0.12 0.12 0.11 0.10 0.10 0.07 0.06 0.08 0.08 0.10 0.12 0.13 0.13 0.12 0.05 0.07 0.12 0.13 0.11 0.06 0.08 0.10 0.10 0.11 0.13 0.14 0.15 0.16 0.17 0.17 0.16 0.16 0.16 0.16 0.16 0.16 0.16 0.16 0.17 0.18 0.19 0.19 0.19 0.18 0.18 0.17 0.15 0.13 0.12 0.11 0.11 0.10 0.09 0.09 0.08 0.08 0.08 0.07 0.07 0.06 0.07 0.06 0.06 0.06 0.06 0.06 0.06 0.06 0.06 0.07 0.07 0.07 0.08 0.08 0.08 0.08 0.08 0.08 0.09
0.10 0.11 0.11 0.11 0.14 0.10 0.10 0.10 0.12 0.13 0.10 0.08 0.06 0.05 0.05 0.05 0.07 0.06 0.08 0.12 0.05 0.03 0.09 0.12 0.11 0.13 0.07 0.07 0.12 0.14 0.17 0.16 0.15 0.14 0.15 0.16 0.15 0.15 0.16 0.16 0.16 0.16 0.16 0.16 0.16 0.17 0.18 0.18 0.18 0.18 0.18 0.17 0.16 0.14 0.13 0.12 0.12 0.11 0.10 0.09 0.08 0.08 0.08 0.07 0.07 0.07 0.06 0.06 0.06 0.06 0.06 0.06 0.06 0.06 0.06 0.06 0.07 0.07 0.07 0.07 0.06 0.06 0.07 0.07 0.07 0.07
0.07 0.08 0.11 0.13 0.15 0.10 0.06 0.05 0.06 0.10 0.08 0.07 0.06 0.05 0.04 0.04 0.04 0.03 0.06 0.04 0.05 0.04 0.08 0.12 0.12 0.09 0.08 0.10 0.13 0.15 0.16 0.16 0.17 0.17 0.16 0.16 0.16 0.16 0.16 0.16 0.17 0.17 0.17 0.16 0.16 0.17 0.17 0.17 0.17 0.17 0.17 0.17 0.15 0.14 0.13 0.13 0.12 0.12 0.10 0.09 0.08 0.07 0.07 0.07 0.07 0.06 0.06 0.06 0.06 0.06 0.06 0.06 0.06 0.06 0.06 0.07 0.06 0.07 0.07 0.06 0.06 0.06 0.06 0.06 0.06 0.06
0.09 0.11 0.10 0.10 0.12 0.13 0.09 0.05 0.05 0.05 0.07 0.07 0.06 0.05 0.04 0.04 0.04 0.03 0.04 0.06 0.06 0.07 0.09 0.10 0.12 0.08 0.09 0.11 0.16 0.14 0.16 0.18 0.19 0.20 0.19 0.17 0.16 0.16 0.16 0.17 0.17 0.17 0.17 0.17 0.17 0.17 0.17 0.17 0.17 0.17 0.17 0.16 0.16 0.14 0.13 0.13 0.12 0.12 0.10 0.09 0.08 0.07 0.07 0.07 0.07 0.06 0.06 0.06 0.06 0.06 0.06 0.06 0.06 0.06 0.06 0.06 0.06 0.06 0.06 0.06 0.06 0.06 0.06 0.06 0.06 0.06
0.04 0.04 0.08 0.10 0.08 0.15 0.11 0.09 0.09 0.08 0.09 0.08 0.10 0.07 0.06 0.06 0.05 0.03 0.04 0.04 0.04 0.05 0.07 0.10 0.08 0.07 0.06 0.09 0.14 0.16 0.18 0.19 0.20 0.20 0.19 0.18 0.17 0.17 0.18 0.18 0.18 0.17 0.17 0.17 0.17 0.16 0.16 0.17 0.17 0.16 0.17 0.17 0.16 0.15 0.14 0.13 0.12 0.12 0.10 0.09 0.08 0.07 0.07 0.07 0.07 0.06 0.06 0.06 0.06 0.06 0.06 0.06 0.06 0.06 0.06 0.06 0.06 0.06 0.06 0.06 0.06 0.06 0.06 0.06 0.06 0.06
0.08 0.07 0.11 0.16 0.14 0.15 0.12 0.13 0.13 0.11 0.12 0.10 0.10 0.09 0.06 0.06 0.11 0.06 0.07 0.07 0.06 0.07 0.06 0.07 0.07 0.09 0.09 0.15 0.17 0.18 0.18 0.18 0.20 0.20 0.19 0.17 0.17 0.17 0.17 0.17 0.17 0.17 0.17 0.17 0.17 0.17 0.17 0.17 0.17 0.17 0.17 0.17 0.16 0.15 0.14 0.13 0.12 0.12 0.11 0.09 0.08 0.07 0.07 0.07 0.07 0.06 0.06 0.06 0.06 0.06 0.06 0.06 0.05 0.06 0.06 0.06 0.06 0.06 0.06 0.06 0.06 0.06 0.06 0.06 0.06 0.06
0.08 0.07 0.14 0.15 0.16 0.14 0.13 0.13 0.12 0.13 0.06 0.09 0.09 0.06 0.07 0.11 0.12 0.09 0.09 0.10 0.09 0.08 0.05 0.09 0.08 0.10 0.14 0.15 0.16 0.16 0.16 0.17 0.19 0.18 0.17 0.16 0.17 0.17 0.16 0.16 0.16 0.16 0.17 0.17 0.16 0.16 0.16 0.17 0.17 0.17 0.17 0.17 0.15 0.14 0.13 0.13 0.12 0.12 0.11 0.09 0.08 0.07 0.07 0.07 0.07 0.06 0.06 0.06 0.06 0.06 0.06 0.05 0.05 0.05 0.05 0.05 0.05 0.06 0.06 0.06 0.06 0.06 0.06 0.06 0.06 0.06
0.06 0.06 0.13 0.13 0.11 0.15 0.16 0.16 0.15 0.14 0.13 0.11 0.07 0.08 0.11 0.17 0.16 0.12 0.06 0.06 0.06 0.05 0.05 0.08 0.06 0.07 0.08 0.06 0.13 0.13 0.14 0.16 0.16 0.15 0.15 0.16 0.16 0.16 0.15 0.16 0.16 0.16 0.16 0.17 0.17 0.17 0.17 0.17 0.17 0.17 0.17 0.16 0.14 0.14 0.13 0.13 0.12 0.11 0.10 0.09 0.08 0.08 0.07 0.07 0.07 0.06 0.06 0.06 0.06 0.06 0.06 0.05 0.05 0.05 0.05 0.05 0.05 0.06 0.06 0.06 0.06 0.06 0.05 0.05 0.06 0.06
0.13 0.05 0.09 0.14 0.13 0.15 0.18 0.17 0.15 0.15 0.15 0.11 0.09 0.13 0.07 0.05 0.06 0.10 0.08 0.05 0.05 0.04 0.05 0.06 0.07 0.07 0.08 0.07 0.10 0.12 0.13 0.14 0.13 0.14 0.14 0.14 0.15 0.15 0.15 0.15 0.16 0.17 0.17 0.17 0.17 0.17 0.17 0.17 0.17 0.16 0.16 0.15 0.14 0.13 0.13 0.12 0.12 0.11 0.10 0.09 0.08 0.08 0.08 0.07 0.07 0.06 0.06 0.06 0.06 0.06 0.05 0.05 0.05 0.05 0.05 0.06 0.06 0.06 0.06 0.05 0.05 0.05 0.05 0.06 0.06 0.06
0.14 0.06 0.06 0.13 0.12 0.14 0.14 0.13 0.07 0.10 0.14 0.14 0.14 0.10 0.12 0.10 0.08 0.07 0.08 0.08 0.08 0.06 0.06 0.05 0.06 0.05 0.08 0.08 0.11 0.12 0.12 0.13 0.12 0.12 0.12 0.13 0.14 0.14 0.14 0.15 0.15 0.16 0.16 0.17 0.17 0.17 0.17 0.16 0.16 0.15 0.15 0.14 0.13 0.13 0.13 0.12 0.11 0.10 0.09 0.09 0.08 0.08 0.08 0.07 0.07 0.06 0.06 0.06 0.06 0.06 0.06 0.05 0.05 0.05 0.06 0.06 0.06 0.06 0.05 0.05 0.05 0.05 0.05 0.05 0.05 0.05
0.09 0.12 0.05 0.08 0.11 0.12 0.09 0.11 0.09 0.10 0.09 0.11 0.10 0.08 0.08 0.09 0.11 0.10 0.10 0.09 0.08 0.06 0.06 0.06 0.05 0.06 0.09 0.12 0.12 0.12 0.12 0.12 0.12 0.11 0.12 0.13 0.14 0.15 0.15 0.15 0.16 0.16 0.17 0.17 0.16 0.15 0.15 0.15 0.15 0.14 0.14 0.13 0.13 0.12 0.12 0.11 0.11 0.10 0.09 0.09 0.08 0.08 0.08 0.07 0.07 0.07 0.06 0.06 0.06 0.06 0.05 0.05 0.05 0.05 0.06 0.06 0.06 0.06 0.05 0.05 0.05 0.05 0.05 0.05 0.05 0.05
0.08 0.09 0.06 0.07 0.06 0.07 0.08 0.13 0.13 0.13 0.13 0.12 0.10 0.09 0.09 0.08 0.07 0.06 0.06 0.10 0.10 0.09 0.07 0.06 0.05 0.06 0.09 0.13 0.13 0.12 0.12 0.12 0.12 0.13 0.13 0.13 0.14 0.15 0.15 0.16 0.16 0.16 0.16 0.15 0.15 0.14 0.14 0.14 0.14 0.13 0.13 0.13 0.12 0.12 0.11 0.11 0.10 0.09 0.09 0.08 0.08 0.08 0.08 0.07 0.07 0.06 0.06 0.06 0.06 0.06 0.05 0.05 0.06 0.06 0.06 0.06 0.06 0.05 0.05 0.05 0.05 0.05 0.05 0.05 0.05 0.05
0.12 0.11 0.09 0.06 0.06 0.07 0.10 0.14 0.16 0.16 0.16 0.15 0.13 0.10 0.11 0.10 0.09 0.08 0.06 0.07 0.11 0.10 0.10 0.09 0.07 0.07 0.11 0.14 0.14 0.13 0.12 0.12 0.13 0.14 0.13 0.14 0.14 0.15 0.15 0.16 0.16 0.16 0.15 0.15 0.14 0.14 0.13 0.13 0.13 0.13 0.12 0.12 0.12 0.11 0.11 0.10 0.10 0.09 0.09 0.08 0.08 0.08 0.08 0.07 0.07 0.07 0.07 0.06 0.06 0.06 0.06 0.06 0.06 0.06 0.06 0.06 0.06 0.05 0.05 0.05 0.05 0.05 0.05 0.05 0.05 0.05
0.16 0.09 0.07 0.06 0.07 0.10 0.13 0.15 0.16 0.17 0.16 0.14 0.14 0.13 0.11 0.09 0.10 0.09 0.08 0.09 0.08 0.09 0.08 0.08 0.07 0.07 0.11 0.14 0.13 0.13 0.13 0.13 0.14 0.14 0.14 0.14 0.14 0.14 0.14 0.15 0.15 0.15 0.15 0.15 0.14 0.14 0.13 0.13 0.13 0.13 0.12 0.12 0.11 0.11 0.10 0.10 0.09 0.09 0.09 0.08 0.08 0.08 0.07 0.07 0.07 0.07 0.07 0.06 0.06 0.06 0.06 0.06 0.06 0.06 0.06 0.05 0.05 0.05 0.05 0.05 0.05 0.05 0.05 0.05 0.05 0.05
0.08 0.09 0.08 0.06 0.06 0.06 0.08 0.12 0.12 0.15 0.15 0.12 0.11 0.12 0.12 0.12 0.12 0.12 0.12 0.12 0.08 0.08 0.08 0.07 0.06 0.07 0.09 0.13 0.14 0.13 0.13 0.13 0.13 0.14 0.15 0.14 0.14 0.15 0.15 0.15 0.16 0.15 0.15 0.14 0.14 0.13 0.13 0.13 0.13 0.12 0.12 0.12 0.11 0.11 0.10 0.09 0.09 0.09 0.09 0.08 0.08 0.07 0.07 0.07 0.07 0.07 0.07 0.06 0.06 0.06 0.06 0.06 0.06 0.06 0.06 0.06 0.05 0.05 0.05 0.05 0.05 0.05 0.05 0.05 0.05 0.05
0.09 0.09 0.08 0.05 0.05 0.05 0.05 0.05 0.05 0.06 0.07 0.10 0.12 0.12 0.13 0.12 0.12 0.10 0.08 0.10 0.08 0.09 0.09 0.08 0.07 0.09 0.10 0.12 0.12 0.12 0.13 0.13 0.13 0.14 0.15 0.15 0.15 0.15 0.15 0.15 0.15 0.15 0.14 0.14 0.13 0.13 0.13 0.13 0.13 0.12 0.12 0.12 0.11 0.10 0.10 0.09 0.09 0.09 0.08 0.08 0.07 0.07 0.07 0.07 0.07 0.07 0.06 0.06 0.06 0.06 0.06 0.06 0.06 0.06 0.06 0.06 0.05 0.05 0.05 0.05 0.05 0.05 0.05 0.05 0.05 0.05
0.09 0.11 0.09 0.08 0.07 0.06 0.07 0.08 0.09 0.10 0.10 0.08 0.10 0.11 0.11 0.13 0.13 0.12 0.11 0.09 0.08 0.09 0.08 0.09 0.09 0.09 0.09 0.10 0.11 0.11 0.12 0.12 0.13 0.13 0.14 0.14 0.15 0.15 0.16 0.16 0.15 0.15 0.14 0.14 0.13 0.13 0.13 0.13 0.12 0.12 0.12 0.11 0.11 0.10 0.10 0.09 0.09 0.09 0.08 0.07 0.07 0.07 0.07 0.07 0.07 0.07 0.06 0.06 0.06 0.06 0.06 0.06 0.06 0.06 0.06 0.06 0.06 0.05 0.05 0.05 0.05 0.05 0.05 0.05 0.05 0.05
0.09 0.07 0.09 0.09 0.09 0.09 0.09 0.09 0.10 0.10 0.09 0.09 0.09 0.09 0.12 0.12 0.12 0.11 0.10 0.08 0.10 0.09 0.08 0.09 0.10 0.09 0.09 0.10 0.11 0.11 0.12 0.13 0.13 0.13 0.14 0.14 0.15 0.15 0.16 0.16 0.15 0.15 0.14 0.14 0.13 0.13 0.13 0.13 0.12 0.12 0.12 0.11 0.10 0.10 0.10 0.09 0.09 0.09 0.08 0.07 0.07 0.07 0.07 0.07 0.07 0.07 0.06 0.06 0.06 0.06 0.06 0.06 0.06 0.06 0.06 0.06 0.06 0.05 0.05 0.05 0.05 0.05 0.05 0.05 0.05 0.05
0.08 0.07 0.09 0.10 0.10 0.10 0.10 0.10 0.10 0.10 0.11 0.10 0.10 0.10 0.10 0.12 0.12 0.11 0.10 0.11 0.11 0.09 0.08 0.09 0.10 0.09 0.10 0.11 0.12 0.12 0.13 0.14 0.13 0.13 0.14 0.15 0.16 0.16 0.16 0.15 0.15 0.14 0.14 0.13 0.14 0.14 0.13 0.13 0.13 0.12 0.11 0.11 0.10 0.10 0.09 0.09 0.09 0.08 0.07 0.07 0.07 0.07 0.07 0.07 0.07 0.06 0.06 0.06 0.06 0.06 0.06 0.06 0.06 0.06 0.06 0.06 0.06 0.05 0.05 0.05 0.05 0.05 0.05 0.05 0.05 0.05
0.10 0.08 0.10 0.11 0.10 0.09 0.09 0.10 0.10 0.10 0.11 0.11 0.10 0.10 0.11 0.11 0.12 0.12 0.11 0.12 0.12 0.11 0.11 0.10 0.11 0.11 0.12 0.12 0.13 0.14 0.15 0.15 0.14 0.15 0.15 0.15 0.15 0.15 0.15 0.15 0.14 0.14 0.14 0.14 0.14 0.14 0.14 0.13 0.12 0.12 0.11 0.10 0.10 0.10 0.09 0.09 0.08 0.07 0.07 0.07 0.07 0.07 0.07 0.07 0.07 0.06 0.06 0.06 0.06 0.06 0.06 0.06 0.06 0.06 0.06 0.06 0.06 0.06 0.05 0.05 0.05 0.05 0.05 0.05 0.05 0.05
0.10 0.08 0.13 0.11 0.09 0.09 0.09 0.10 0.11 0.11 0.11 0.10 0.10 0.10 0.11 0.11 0.12 0.12 0.12 0.12 0.13 0.12 0.12 0.12 0.12 0.11 0.13 0.14 0.14 0.15 0.15 0.15 0.15 0.15 0.15 0.15 0.15 0.16 0.15 0.15 0.14 0.14 0.14 0.15 0.15 0.15 0.14 0.13 0.12 0.11 0.11 0.10 0.10 0.10 0.09 0.09 0.08 0.07 0.07 0.07 0.07 0.07 0.07 0.07 0.06 0.06 0.06 0.06 0.06 0.06 0.06 0.06 0.06 0.06 0.06 0.06 0.06 0.06 0.06 0.05 0.05 0.05 0.05 0.05 0.05 0.05
0.11 0.09 0.11 0.10 0.09 0.08 0.09 0.10 0.10 0.10 0.10 0.10 0.10 0.10 0.10 0.10 0.10 0.11 0.11 0.12 0.12 0.10 0.11 0.12 0.11 0.11 0.12 0.14 0.14 0.14 0.14 0.14 0.14 0.14 0.15 0.15 0.16 0.16 0.15 0.15 0.14 0.14 0.15 0.15 0.15 0.15 0.14 0.13 0.12 0.11 0.10 0.10 0.10 0.09 0.09 0.08 0.08 0.07 0.07 0.07 0.07 0.07 0.07 0.07 0.06 0.06 0.06 0.06 0.06 0.06 0.06 0.06 0.06 0.06 0.06 0.06 0.06 0.06 0.06 0.06 0.05 0.05 0.05 0.05 0.05 0.05
0.11 0.10 0.09 0.09 0.08 0.08 0.09 0.10 0.10 0.10 0.10 0.09 0.09 0.09 0.10 0.11 0.11 0.12 0.13 0.13 0.13 0.13 0.11 0.10 0.10 0.12 0.13 0.14 0.13 0.13 0.14 0.14 0.15 0.15 0.15 0.15 0.16 0.16 0.15 0.15 0.15 0.15 0.15 0.16 0.15 0.15 0.14 0.13 0.12 0.11 0.10 0.10 0.09 0.09 0.08 0.08 0.08 0.07 0.07 0.07 0.07 0.07 0.07 0.06 0.06 0.06 0.06 0.06 0.06 0.06 0.06 0.06 0.06 0.06 0.06 0.06 0.06 0.06 0.06 0.06 0.05 0.05 0.05 0.05 0.05 0.05
0.13 0.12 0.10 0.11 0.09 0.08 0.09 0.10 0.10 0.09 0.08 0.08 0.11 0.12 0.11 0.11 0.11 0.11 0.11 0.12 0.13 0.14 0.12 0.13 0.12 0.13 0.13 0.14 0.13 0.13 0.14 0.14 0.15 0.16 0.16 0.16 0.16 0.16 0.16 0.16 0.16 0.16 0.16 0.16 0.16 0.15 0.14 0.13 0.12 0.11 0.10 0.10 0.09 0.08 0.08 0.08 0.08 0.07 0.07 0.07 0.07 0.07 0.06 0.06 0.06 0.06 0.06 0.06 0.06 0.06 0.06 0.06 0.06 0.06 0.06 0.06 0.06 0.06 0.06 0.05 0.05 0.05 0.05 0.05 0.05 0.05
0.13 0.13 0.11 0.12 0.09 0.09 0.10 0.10 0.09 0.07 0.08 0.11 0.13 0.13 0.14 0.13 0.13 0.12 0.13 0.13 0.14 0.14 0.14 0.13 0.13 0.14 0.14 0.14 0.14 0.14 0.14 0.15 0.16 0.16 0.17 0.17 0.17 0.16 0.16 0.16 0.16 0.16 0.16 0.16 0.16 0.15 0.14 0.13 0.12 0.11 0.10 0.09 0.09 0.09 0.08 0.08 0.08 0.08 0.07 0.07 0.07 0.07 0.06 0.06 0.06 0.06 0.06 0.06 0.06 0.06 0.06 0.06 0.06 0.06 0.06 0.06 0.06 0.06 0.05 0.05 0.05 0.05 0.05 0.05 0.05 0.05
0.13 0.13 0.12 0.11 0.11 0.11 0.10 0.09 0.07 0.08 0.11 0.12 0.12 0.13 0.15 0.14 0.14 0.14 0.13 0.14 0.14 0.14 0.14 0.13 0.14 0.14 0.14 0.14 0.14 0.15 0.15 0.16 0.16 0.17 0.17 0.17 0.17 0.17 0.17 0.16 0.16 0.16 0.16 0.16 0.16 0.16 0.15 0.13 0.12 0.11 0.10 0.09 0.09 0.09 0.08 0.08 0.08 0.08 0.07 0.07 0.07 0.06 0.06 0.06 0.06 0.06 0.06 0.06 0.06 0.06 0.06 0.06 0.06 0.06 0.06 0.06 0.06 0.05 0.05 0.05 0.05 0.05 0.05 0.05 0.05 0.05
0.15 0.14 0.13 0.11 0.12 0.09 0.09 0.09 0.09 0.11 0.11 0.12 0.11 0.12 0.13 0.12 0.13 0.12 0.11 0.12 0.15 0.14 0.14 0.14 0.14 0.13 0.13 0.14 0.14 0.15 0.15 0.16 0.15 0.15 0.17 0.17 0.17 0.18 0.18 0.17 0.17 0.17 0.17 0.17 0.17 0.16 0.15 0.14 0.12 0.11 0.10 0.09 0.09 0.09 0.08 0.08 0.08 0.08 0.07 0.07 0.07 0.06 0.06 0.06 0.06 0.06 0.06 0.06 0.06 0.06 0.06 0.06 0.06 0.06 0.06 0.06 0.05 0.05 0.05 0.05 0.05 0.05 0.05 0.05 0.05 0.05
0.17 0.14 0.14 0.11 0.11 0.12 0.10 0.09 0.09 0.09 0.08 0.10 0.11 0.13 0.15 0.16 0.16 0.15 0.13 0.12 0.15 0.15 0.15 0.14 0.13 0.13 0.13 0.14 0.14 0.15 0.15 0.14 0.13 0.14 0.16 0.17 0.18 0.18 0.18 0.18 0.18 0.17 0.17 0.17 0.17 0.16 0.15 0.13 0.12 0.11 0.10 0.09 0.09 0.09 0.09 0.08 0.08 0.07 0.07 0.07 0.07 0.06 0.06 0.06 0.06 0.06 0.06 0.06 0.06 0.06 0.06 0.06 0.06 0.06 0.06 0.06 0.05 0.05 0.05 0.05 0.05 0.05 0.05 0.05 0.05 0.05
0.17 0.17 0.15 0.12 0.11 0.11 0.10 0.09 0.09 0.08 0.10 0.12 0.12 0.14 0.16 0.16 0.16 0.16 0.13 0.11 0.15 0.15 0.16 0.15 0.14 0.13 0.13 0.14 0.14 0.15 0.14 0.12 0.12 0.14 0.16 0.17 0.17 0.18 0.18 0.18 0.18 0.18 0.17 0.17 0.17 0.16 0.15 0.13 0.12 0.11 0.10 0.09 0.09 0.09 0.09 0.08 0.08 0.07 0.07 0.07 0.07 0.06 0.06 0.06 0.06 0.06 0.06 0.06 0.06 0.06 0.06 0.06 0.06 0.06 0.06 0.05 0.05 0.05 0.05 0.05 0.05 0.05 0.05 0.05 0.05 0.05
0.15 0.15 0.15 0.13 0.12 0.12 0.11 0.10 0.10 0.11 0.11 0.13 0.14 0.15 0.16 0.17 0.16 0.14 0.10 0.10 0.15 0.16 0.16 0.15 0.14 0.14 0.14 0.14 0.15 0.15 0.14 0.12 0.12 0.14 0.16 0.17 0.18 0.19 0.18 0.18 0.18 0.18 0.17 0.17 0.17 0.16 0.15 0.13 0.12 0.11 0.10 0.09 0.09 0.09 0.09 0.08 0.08 0.07 0.07 0.07 0.07 0.06 0.06 0.06 0.06 0.06 0.06 0.06 0.06 0.06 0.06 0.06 0.06 0.06 0.06 0.05 0.05 0.05 0.05 0.05 0.05 0.05 0.05 0.05 0.05 0.05
0.13 0.14 0.14 0.12 0.12 0.12 0.12 0.11 0.12 0.12 0.15 0.15 0.15 0.16 0.17 0.17 0.15 0.11 0.10 0.12 0.16 0.16 0.17 0.16 0.15 0.15 0.15 0.15 0.15 0.14 0.15 0.15 0.15 0.16 0.17 0.18 0.18 0.18 0.19 0.19 0.18 0.18 0.18 0.17 0.17 0.16 0.14 0.13 0.12 0.11 0.10 0.10 0.09 0.09 0.09 0.08 0.08 0.07 0.07 0.07 0.07 0.06 0.06 0.06 0.07 0.06 0.06 0.06 0.06 0.06 0.06 0.06 0.06 0.06 0.05 0.05 0.05 0.05 0.05 0.05 0.05 0.05 0.05 0.05 0.05 0.05
0.12 0.13 0.13 0.14 0.13 0.12 0.12 0.11 0.11 0.13 0.15 0.17 0.18 0.17 0.18 0.15 0.11 0.11 0.14 0.17 0.17 0.17 0.18 0.17 0.16 0.16 0.16 0.15 0.16 0.16 0.16 0.17 0.17 0.18 0.18 0.18 0.19 0.19 0.19 0.19 0.19 0.18 0.18 0.17 0.17 0.16 0.14 0.13 0.12 0.11 0.10 0.10 0.10 0.09 0.09 0.08 0.08 0.07 0.07 0.07 0.07 0.06 0.07 0.07 0.07 0.07 0.07 0.06 0.06 0.06 0.06 0.06 0.06 0.06 0.06 0.05 0.05 0.05 0.05 0.05 0.05 0.05 0.05 0.05 0.05 0.05
0.12 0.12 0.12 0.12 0.13 0.14 0.14 0.12 0.11 0.11 0.14 0.18 0.18 0.17 0.18 0.13 0.13 0.15 0.16 0.17 0.18 0.18 0.18 0.18 0.17 0.17 0.16 0.16 0.16 0.17 0.17 0.17 0.17 0.18 0.18 0.19 0.19 0.19 0.20 0.19 0.19 0.18 0.18 0.17 0.17 0.16 0.14 0.13 0.12 0.11 0.10 0.10 0.10 0.09 0.09 0.08 0.08 0.07 0.07 0.07 0.07 0.07 0.07 0.07 0.07 0.07 0.06 0.06 0.06 0.06 0.06 0.06 0.06 0.06 0.05 0.05 0.05 0.05 0.05 0.05 0.05 0.05 0.05 0.05 0.05 0.05
0.15 0.12 0.12 0.13 0.15 0.12 0.12 0.12 0.13 0.15 0.17 0.19 0.17 0.15 0.17 0.17 0.17 0.17 0.18 0.17 0.19 0.19 0.18 0.18 0.18 0.17 0.17 0.17 0.16 0.17 0.17 0.18 0.18 0.18 0.18 0.19 0.19 0.20 0.20 0.20 0.19 0.19 0.18 0.17 0.17 0.16 0.14 0.13 0.12 0.11 0.11 0.10 0.10 0.09 0.09 0.08 0.08 0.07 0.07 0.07 0.07 0.07 0.07 0.07 0.07 0.07 0.06 0.06 0.06 0.06 0.06 0.06 0.06 0.06 0.05 0.05 0.05 0.05 0.05 0.05 0.05 0.05 0.05 0.05 0.05 0.05
0.16 0.14 0.15 0.13 0.16 0.15 0.14 0.15 0.18 0.19 0.19 0.19 0.19 0.18 0.18 0.19 0.19 0.19 0.18 0.18 0.18 0.18 0.19 0.18 0.18 0.18 0.18 0.17 0.17 0.17 0.17 0.18 0.18 0.18 0.18 0.19 0.19 0.20 0.20 0.20 0.19 0.19 0.18 0.17 0.16 0.16 0.14 0.13 0.12 0.11 0.11 0.10 0.09 0.09 0.09 0.08 0.08 0.07 0.07 0.07 0.07 0.07 0.07 0.07 0.07 0.06 0.06 0.06 0.06 0.06 0.06 0.06 0.06 0.05 0.05 0.05 0.05 0.05 0.05 0.05 0.05 0.05 0.05 0.05 0.05 0.05
0.17 0.17 0.18 0.17 0.16 0.18 0.18 0.19 0.20 0.20 0.20 0.19 0.20 0.20 0.19 0.19 0.20 0.19 0.19 0.19 0.19 0.19 0.19 0.19 0.19 0.19 0.19 0.18 0.17 0.17 0.17 0.18 0.18 0.19 0.19 0.19 0.20 0.20 0.21 0.20 0.20 0.19 0.18 0.17 0.16 0.16 0.14 0.13 0.12 0.11 0.11 0.10 0.09 0.09 0.09 0.08 0.08 0.07 0.07 0.07 0.07 0.07 0.07 0.07 0.06 0.06 0.06 0.06 0.06 0.06 0.06 0.06 0.05 0.05 0.05 0.05 0.05 0.05 0.05 0.05 0.05 0.04 0.04 0.04 0.04 0.04
0.17 0.18 0.17 0.16 0.18 0.16 0.14 0.20 0.20 0.20 0.20 0.20 0.20 0.20 0.21 0.20 0.20 0.20 0.20 0.20 0.20 0.20 0.20 0.20 0.19 0.20 0.20 0.19 0.18 0.17 0.17 0.19 0.19 0.19 0.19 0.19 0.20 0.20 0.20 0.20 0.20 0.19 0.18 0.17 0.16 0.16 0.14 0.13 0.12 0.11 0.11 0.10 0.09 0.09 0.09 0.08 0.08 0.08 0.07 0.07 0.07 0.07 0.07 0.07 0.07 0.06 0.06 0.06 0.06 0.06 0.06 0.05 0.05 0.05 0.05 0.05 0.05 0.05 0.05 0.05 0.05 0.04 0.04 0.04 0.04 0.04
0.14 0.19 0.17 0.18 0.17 0.16 0.16 0.19 0.21 0.21 0.20 0.21 0.21 0.20 0.20 0.20 0.20 0.20 0.20 0.21 0.22 0.21 0.20 0.20 0.20 0.20 0.21 0.19 0.18 0.18 0.18 0.19 0.19 0.19 0.19 0.19 0.20 0.20 0.20 0.20 0.20 0.19 0.18 0.18 0.17 0.16 0.15 0.13 0.12 0.11 0.11 0.10 0.09 0.09 0.09 0.08 0.08 0.08 0.07 0.07 0.07 0.07 0.07 0.07 0.06 0.06 0.06 0.06 0.06 0.06 0.06 0.05 0.05 0.05 0.05 0.05 0.05 0.05 0.05 0.05 0.05 0.04 0.04 0.04 0.04 0.04
0.17 0.19 0.17 0.18 0.17 0.18 0.19 0.21 0.21 0.20 0.20 0.21 0.22 0.22 0.22 0.21 0.21 0.21 0.21 0.21 0.21 0.21 0.21 0.21 0.21 0.21 0.21 0.20 0.19 0.19 0.18 0.19 0.20 0.20 0.20 0.20 0.20 0.20 0.21 0.20 0.20 0.19 0.18 0.17 0.16 0.16 0.15 0.13 0.12 0.12 0.11 0.10 0.09 0.09 0.09 0.08 0.08 0.07 0.07 0.07 0.07 0.07 0.07 0.07 0.06 0.06 0.06 0.06 0.06 0.06 0.06 0.05 0.05 0.05 0.05 0.05 0.05 0.05 0.05 0.05 0.04 0.04 0.04 0.04 0.05 0.05
0.17 0.17 0.19 0.18 0.17 0.16 0.18 0.20 0.22 0.18 0.17 0.20 0.21 0.22 0.22 0.22 0.22 0.21 0.21 0.21 0.21 0.22 0.21 0.21 0.21 0.22 0.22 0.21 0.20 0.19 0.19 0.19 0.20 0.20 0.20 0.20 0.20 0.21 0.21 0.20 0.20 0.19 0.18 0.17 0.17 0.16 0.15 0.14 0.13 0.12 0.11 0.10 0.09 0.09 0.08 0.08 0.08 0.07 0.07 0.07 0.07 0.07 0.07 0.07 0.06 0.06 0.06 0.06 0.06 0.06 0.05 0.05 0.05 0.05 0.05 0.05 0.05 0.05 0.05 0.05 0.05 0.05 0.04 0.04 0.05 0.05
0.17 0.18 0.19 0.18 0.18 0.17 0.22 0.23 0.24 0.23 0.22 0.22 0.23 0.23 0.23 0.23 0.22 0.21 0.21 0.21 0.22 0.22 0.22 0.21 0.21 0.22 0.22 0.21 0.20 0.19 0.19 0.20 0.20 0.21 0.20 0.20 0.20 0.21 0.21 0.21 0.20 0.19 0.18 0.17 0.17 0.16 0.15 0.14 0.13 0.12 0.11 0.10 0.10 0.09 0.08 0.08 0.07 0.07 0.07 0.07 0.07 0.07 0.07 0.07 0.06 0.06 0.06 0.06 0.06 0.05 0.05 0.05 0.05 0.05 0.05 0.05 0.05 0.05 0.05 0.04 0.05 0.05 0.05 0.05 0.05 0.05
Wind_Speed
12 12 13 14 16 16 16 16 15 15 14 14 14 14 14 14 14 15 15 16 15 15 18 17 16 18 19 20 19 19 19 18 18 19 19 20 20 20 21 21 22 23 23 23 24 25 25 26 27 27 28 29 29 30 31 31 32 33 33 34 35 35 36 36 37 38 38 39 40 40 41 42 42 42 43 43 43 43 43 44 44 45 45 45 46 46
12 12 14 15 16 15 15 15 14 14 14 13 13 13 13 14 14 14 15 17 16 15 18 17 16 18 19 19 19 18 19 19 19 19 19 19 20 21 21 22 22 23 23 23 24 25 25 26 27 27 28 29 29 30 31 32 32 33 34 35 35 36 37 37 38 38 39 40 40 41 42 42 43 43 44 44 44 45 45 45 45 46 46 47 47 47
12 12 15 16 15 13 13 14 13 13 13 13 13 13 13 14 14 14 15 17 16 15 17 17 16 18 19 18 18 18 19 19 19 19 19 19 19 20 21 22 22 23 24 24 24 25 25 26 27 28 28 29 30 31 31 32 33 33 34 35 35 36 37 37 38 39 40 40 41 41 42 43 43 44 44 45 45 46 46 46 47 47 47 48 48 48
11 13 15 16 15 12 13 14 13 12 12 12 12 12 13 14 14 14 15 16 16 15 14 14 14 16 17 17 18 18 18 17 18 19 19 18 19 19 20 21 22 23 24 25 25 26 27 28 28 29 29 30 31 31 32 33 33 34 35 35 36 36 37 38 38 39 40 40 41 42 42 43 43 44 44 45 45 46 46 47 47 48 48 48 49 49
10 13 15 14 13 12 12 13 12 12 12 13 12 11 12 13 13 13 13 13 13 14 12 11 13 15 15 16 17 17 16 16 17 17 17 18 18 19 19 21 22 23 24 25 26 27 27 28 29 30 30 31 31 32 33 33 34 35 36 36 37 37 38 38 39 40 40 41 42 42 42 43 43 44 44 44 45 45 46 46 47 47 48 48 49 49
10 13 13 12 12 11 10 11 11 11 11 12 11 10 10 11 11 9 10 11 11 13 12 11 12 14 13 14 15 15 15 15 16 15 15 16 17 18 19 20 21 22 23 25 26 26 27 28 29 30 30 31 32 32 33 34 34 35 36 37 38 38 39 39 40 41 41 42 42 43 43 43 44 44 44 45 45 45 46 46 46 47 47 47 48 49
10 12 11 9 10 10 9 9 9 9 9 10 10 9 9 9 8 7 8 9 9 11 11 10 11 13 13 14 14 14 15 15 16 15 15 15 16 17 18 19 20 21 23 24 25 25 26 27 28 29 30 30 31 32 33 34 34 35 36 37 38 39 40 40 41 41 42 42 42 43 43 44 44 45 45 45 46 46 47 47 47 47 47 48 48 49
9 11 11 10 10 9 9 9 9 9 8 9 9 9 10 9 6 6 7 8 9 10 11 10 10 12 14 14 13 13 14 16 16 16 16 16 16 17 18 19 20 21 22 23 24 25 25 27 28 28 29 30 30 31 32 33 34 35 36 37 39 39 40 41 41 42 42 43 43 43 44 44 45 45 46 46 46 47 47 48 48 48 48 48 49 49
8 10 11 10 10 10 9 9 10 9 9 9 10 10 10 8 6 6 7 8 10 10 12 12 11 12 14 14 14 14 15 17 17 17 17 16 17 18 19 20 21 22 23 23 24 25 25 26 27 28 28 29 30 31 32 33 34 35 36 37 38 39 40 41 41 42 42 43 43 44 44 45 45 46 46 47 47 47 48 48 48 49 49 49 49 49
8 9 9 9 10 10 9 9 10 10 10 11 11 10 10 9 8 8 7 9 10 11 12 12 11 12 15 15 14 15 16 17 17 17 17 17 17 18 19 20 21 22 23 24 25 25 26 27 27 28 28 29 30 30 31 32 34 35 36 37 38 38 39 40 41 41 42 42 43 44 44 45 46 46 47 47 48 48 48 48 49 49 49 50 50 50
9 9 9 9 10 10 9 10 10 10 12 13 12 11 10 10 9 9 9 9 10 12 13 12 11 12 15 16 15 15 17 17 17 17 18 17 18 19 20 21 22 23 24 25 25 26 27 28 28 28 29 29 30 31 31 33 34 35 36 36 37 38 38 39 39 40 40 41 42 42 43 44 45 46 47 47 48 48 49 49 49 50 50 51 51 51
11 11 10 9 10 11 10 11 11 12 13 13 12 12 10 11 11 10 11 10 10 12 13 12 12 12 14 17 16 16 18 18 17 17 17 18 19 20 20 22 22 24 25 25 26 27 28 28 29 29 30 30 30 31 32 33 34 35 36 37 37 38 38 38 39 39 40 40 41 41 42 43 44 45 45 46 47 47 48 49 49 50 51 51 51 52
10 10 11 10 11 13 12 12 13 13 14 14 13 12 11 11 11 11 12 11 11 13 13 13 14 14 16 17 17 17 18 18 19 19 18 18 19 20 21 22 23 24 25 26 27 28 29 29 29 30 30 31 31 31 32 33 34 35 36 37 37 38 38 38 39 39 40 40 40 41 41 42 43 44 44 45 45 46 47 47 48 49 50 50 51 51
10 11 13 12 12 13 12 12 13 14 14 15 14 12 11 11 11 12 13 13 13 14 14 15 15 15 17 18 18 18 18 18 19 20 20 20 20 21 22 23 24 25 26 27 28 29 29 30 30 30 31 31 31 32 33 33 34 35 36 37 37 38 38 38 39 39 40 40 41 41 41 42 43 43 43 44 44 45 46 46 47 48 49 49 50 50
10 10 12 13 12 14 13 13 13 13 14 15 14 12 12 11 11 12 13 13 15 16 16 16 14 14 16 18 19 19 19 19 20 21 21 22 22 23 23 24 25 27 28 28 29 30 30 31 31 31 31 32 32 32 33 34 34 35 36 37 37 38 38 39 39 39 40 40 40 41 42 42 43 43 43 43 44 44 45 46 47 47 48 48 49 50
10 10 12 13 13 14 14 14 14 13 14 15 15 14 14 13 11 13 14 14 16 17 17 16 14 15 17 18 19 19 20 20 21 22 22 23 23 23 24 26 26 28 29 29 30 31 31 31 31 32 32 32 32 33 33 34 34 35 36 37 37 38 38 39 39 40 40 40 40 41 41 42 42 42 42 42 43 44 44 45 46 47 48 48 49 49
11 11 12 13 13 14 14 15 15 14 14 16 16 15 16 14 12 14 16 16 16 16 16 15 16 19 19 19 19 19 21 21 21 23 23 24 24 24 26 27 28 29 30 30 31 31 31 32 32 32 32 32 32 33 33 34 34 35 36 37 37 38 39 39 40 40 40 40 40 41 42 42 42 41 41 41 42 43 44 44 45 46 47 47 48 48
12 12 13 13 13 14 14 15 17 16 15 15 16 16 16 15 14 14 15 17 16 16 17 16 17 19 19 19 20 20 21 22 22 24 25 25 25 26 28 28 29 30 30 31 32 32 32 32 32 32 32 32 32 33 33 33 34 35 36 37 38 38 39 39 40 40 40 40 41 41 42 42 42 41 41 41 42 42 43 43 44 45 45 46 46 46
13 13 14 13 13 15 16 16 17 17 17 15 15 16 16 15 15 15 15 16 17 17 18 18 18 19 18 19 20 20 21 22 24 24 25 26 27 27 29 29 30 30 31 31 32 32 33 32 32 32 32 33 33 33 33 34 35 36 36 37 38 39 39 40 40 40 41 41 41 41 42 42 42 41 41 42 42 42 43 43 44 44 44 44 45 45
14 13 14 15 15 16 17 17 16 17 18 17 17 18 17 15 14 15 15 15 16 17 18 19 19 18 19 19 20 21 22 22 24 25 26 27 28 28 29 30 30 31 31 32 32 33 33 32 32 32 32 33 33 34 34 34 35 36 37 38 39 39 40 40 41 41 41 41 41 41 42 42 42 42 42 42 42 42 43 43 43 43 43 44 44 44
15 14 14 17 18 17 17 17 16 16 17 17 17 18 18 17 16 16 16 15 15 16 17 19 20 19 20 21 20 21 22 22 24 26 26 27 28 28 29 30 30 31 31 32 32 32 32 32 32 32 33 33 34 34 35 35 36 37 38 39 39 40 41 41 41 41 41 41 41 42 42 42 42 42 42 42 42 42 42 42 42 42 43 43 43 43
16 15 15 17 18 17 17 17 17 16 16 16 17 17 17 18 17 16 17 17 16 15 16 18 21 22 23 22 21 22 22 24 26 26 27 28 28 28 29 29 30 30 31 31 32 32 32 32 32 33 33 34 34 35 35 36 37 37 38 39 40 41 41 42 42 42 42 42 42 42 42 42 42 42 42 42 42 42 41 41 42 42 42 42 42 42
16 15 15 17 18 17 18 18 17 16 16 16 17 17 17 17 17 15 16 17 17 17 18 18 20 23 24 22 22 23 24 26 26 26 27 28 27 28 28 29 29 30 31 31 32 32 33 33 33 33 33 34 35 35 36 36 37 38 39 40 40 41 41 42 42 42 42 42 42 42 42 42 42 42 42 41 41 41 41 41 41 41 41 41 41 42
17 16 17 19 19 18 19 19 18 17 17 17 18 18 18 18 18 16 16 17 18 18 18 18 19 23 25 24 24 25 26 26 27 26 27 27 27 28 28 29 30 30 31 32 32 33 33 33 33 33 34 35 35 36 36 37 37 38 39 40 41 41 42 42 42 42 42 42 42 42 42 42 42 41 41 41 41 41 41 41 40 40 40 41 41 41
17 17 18 20 20 20 19 19 19 19 19 19 20 19 18 18 18 18 18 18 18 18 17 17 20 23 25 25 25 26 27 27 27 28 28 28 28 28 29 29 30 31 32 32 33 33 33 33 34 34 35 35 36 37 37 37 38 38 39 40 41 41 42 42 42 42 42 42 43 42 42 42 42 41 41 41 41 41 40 40 40 40 40 41 41 41
17 17 18 18 18 19 19 20 21 21 20 20 20 20 19 18 17 18 18 17 18 19 17 17 22 25 26 25 25 26 26 27 28 28 28 28 28 29 29 30 31 32 32 32 33 33 34 34 35 35 35 36 36 37 37 38 38 39 40 41 41 42 42 42 42 42 42 42 43 43 42 42 41 41 41 41 40 40 40 40 40 40 40 40 41 41
17 18 18 16 16 18 19 20 21 20 21 22 21 20 20 19 18 18 18 17 18 19 19 21 24 28 28 27 26 26 25 26 28 28 28 28 28 28 29 30 31 32 32 33 33 34 34 35 35 35 36 36 37 37 38 38 38 39 40 41 41 42 42 42 42 42 42 43 43 42 42 42 41 41 41 40 40 40 40 40 40 40 40 41 41 41
18 19 19 17 18 19 20 21 21 20 21 22 22 21 19 19 18 18 19 20 19 19 22 24 24 26 29 28 27 27 26 27 28 28 28 28 28 28 30 31 31 31 32 33 33 34 35 35 35 35 36 36 37 37 38 38 39 40 40 41 41 42 42 42 42 42 43 43 42 42 42 41 41 41 40 40 40 40 40 40 40 40 41 41 41 41
18 19 19 18 20 22 21 22 22 20 21 22 22 21 20 19 19 20 21 21 19 20 24 26 24 26 29 29 28 28 28 28 29 29 28 28 28 29 30 30 31 32 33 33 34 35 35 35 36 36 36 37 37 38 38 39 39 40 40 41 41 41 42 42 42 42 42 42 42 42 42 41 41 40 40 40 40 40 40 40 40 41 41 41 41 41
18 20 20 19 21 23 23 22 21 20 21 22 22 22 20 19 19 21 22 21 20 23 27 27 27 28 29 28 28 29 29 29 29 29 28 28 29 29 30 31 32 33 33 34 35 35 36 36 36 36 36 37 37 38 39 39 40 40 40 40 41 41 42 42 42 42 42 42 42 42 41 41 41 40 40 40 40 40 40 40 40 41 41 41 41 41
20 20 20 20 22 23 23 22 21 20 21 23 24 23 21 20 20 21 22 21 22 25 27 27 28 29 28 28 28 29 29 29 28 28 29 29 29 30 31 32 33 33 34 35 35 36 36 36 36 36 36 37 38 38 39 40 40 40 40 40 41 41 41 42 42 42 42 42 42 41 41 41 41 40 40 40 40 40 40 40 40 40 40 40 41 41
20 21 22 22 22 23 23 23 23 23 24 25 24 23 21 20 20 20 21 21 21 24 25 26 27 28 27 26 27 28 28 28 28 29 29 30 30 31 31 33 34 34 35 35 35 35 35 35 36 36 37 37 38 39 40 40 40 39 40 40 40 41 41 41 42 42 42 42 42 41 41 41 41 41 40 40 40 40 40 40 40 40 40 40 40 40
20 21 22 22 22 23 24 23 24 24 25 23 22 21 20 20 20 21 22 22 22 23 24 25 26 28 27 26 27 29 28 28 29 30 30 31 31 31 32 33 34 35 35 35 35 35 35 35 36 36 37 38 39 39 40 40 39 39 40 40 40 41 41 41 42 42 42 42 41 41 41 41 41 40 40 40 40 40 40 40 40 40 40 39 39 39
20 20 21 21 21 23 25 25 24 23 21 21 21 21 20 20 20 21 22 23 23 23 24 26 28 28 28 28 29 30 30 30 30 30 30 31 31 32 33 34 35 35 35 34 34 35 35 35 36 37 38 38 39 39 40 39 39 39 39 40 40 41 41 41 42 42 41 41 41 41 41 41 41 40 40 40 40 40 40 40 40 40 39 39 39 38
20 21 21 21 22 23 25 25 23 20 20 22 24 22 21 20 20 21 23 24 25 25 26 28 29 29 30 30 31 31 32 31 31 31 31 31 32 33 34 35 34 34 34 34 34 35 35 36 36 37 38 39 39 39 39 39 39 39 39 40 40 41 41 42 42 41 41 41 41 41 41 41 40 40 40 39 40 40 40 40 39 39 38 38 38 38
20 20 21 22 22 23 24 22 21 23 25 26 24 21 20 21 22 23 25 26 26 25 25 27 28 29 30 32 32 32 32 32 31 31 32 33 33 33 34 34 34 34 34 34 34 35 35 36 37 37 38 38 39 39 39 39 39 39 40 40 41 41 42 42 42 41 41 41 41 41 41 41 40 40 39 39 39 39 39 39 38 38 38 37 37 37
20 21 22 22 22 22 22 22 24 27 28 27 24 21 22 23 23 24 26 26 25 24 24 25 28 30 31 32 33 31 31 32 32 32 33 33 33 33 33 34 34 34 34 34 35 35 36 36 37 37 38 38 39 39 39 39 39 39 40 40 41 42 42 42 41 41 41 41 41 41 41 41 40 39 39 39 39 38 38 38 38 37 37 37 37 37
21 21 21 22 22 22 23 25 26 26 26 25 24 24 25 25 24 24 26 28 26 24 25 26 29 30 30 31 32 31 31 32 32 32 33 33 32 33 34 34 34 34 34 34 35 36 36 36 37 37 38 38 39 39 39 39 39 40 40 41 41 42 42 42 41 41 41 41 41 41 41 40 39 39 39 38 38 38 37 37 37 37 36 36 36 36
22 23 22 22 23 24 23 24 24 23 25 26 26 26 26 25 24 25 28 29 27 26 27 28 28 30 30 31 31 30 30 32 33 33 33 33 33 34 34 34 35 35 35 35 35 36 36 36 37 37 38 38 39 39 39 39 39 40 40 41 42 42 42 41 41 41 41 41 41 41 41 40 39 38 38 38 37 37 37 36 36 36 36 35 35 36
23 24 23 22 24 24 23 23 23 24 27 28 26 25 25 24 25 26 28 29 29 28 28 28 29 30 31 31 30 29 29 32 34 35 34 34 34 34 34 35 35 35 35 35 35 36 36 36 37 37 38 38 39 39 39 39 39 40 41 42 42 42 42 41 41 41 41 41 41 41 40 39 39 38 38 37 37 36 36 36 36 36 35 35 35 35
23 24 23 23 24 24 23 24 26 27 28 28 25 23 23 25 26 26 27 30 30 30 30 29 30 32 31 30 30 29 31 33 35 36 35 34 35 35 35 35 35 35 36 35 35 36 36 36 37 37 38 39 39 39 39 39 40 40 41 42 42 42 42 41 41 41 41 40 40 40 40 39 38 38 37 36 36 36 35 35 35 35 35 35 35 34
24 24 23 24 25 25 24 25 27 28 28 27 25 25 25 26 27 27 29 31 31 30 31 31 31 32 32 31 31 32 33 34 35 36 35 35 35 36 35 35 36 36 36 36 35 36 36 36 37 38 38 39 39 39 39 39 40 41 41 42 42 42 41 41 41 41 40 40 40 40 40 39 38 37 36 36 36 35 35 35 35 35 35 35 34 34
23 23 24 25 25 25 25 25 26 28 29 26 26 28 28 27 28 30 31 32 32 32 32 32 32 33 33 32 33 33 34 35 35 36 36 35 35 36 35 35 35 36 36 35 35 36 36 37 37 38 38 39 39 39 39 39 40 41 42 42 42 42 41 41 41 40 40 40 40 40 40 39 38 37 36 36 35 35 35 35 35 35 35 34 34 34
23 23 25 26 25 25 25 24 25 28 28 25 25 28 28 29 31 33 33 34 34 34 33 33 34 34 34 34 34 34 34 35 35 36 36 36 36 36 36 35 35 36 36 35 35 36 36 37 37 38 38 39 39 39 39 39 40 41 42 42 42 41 41 41 40 40 40 40 40 40 40 38 37 36 36 35 35 35 35 35 35 35 35 34 34 33
24 23 25 26 25 25 26 27 29 30 29 27 28 30 31 32 33 34 34 35 36 35 34 34 35 35 35 34 34 34 34 35 35 36 36 36 36 36 36 36 35 35 36 36 36 36 36 37 37 38 38 39 39 39 39 40 40 41 42 42 42 41 41 40 40 40 40 40 40 40 39 38 37 36 35 35 35 35 35 35 35 35 35 34 34 33
25 24 25 27 28 29 30 31 32 32 32 31 31 33 34 34 35 35 35 36 37 37 36 35 36 36 35 34 34 35 35 35 36 36 36 36 36 36 36 36 35 35 36 35 35 36 36 37 37 38 38 39 39 39 39 40 40 41 42 42 42 41 41 40 40 40 40 40 40 40 39 38 37 36 35 35 35 35 35 35 35 35 35 34 33 33
27 26 27 28 29 30 32 32 31 32 33 33 34 34 35 35 35 35 36 37 38 38 36 35 36 36 35 35 35 35 35 35 36 36 36 36 36 36 36 36 35 35 35 35 35 35 36 36 37 38 38 39 39 39 39 40 41 41 42 42 42 41 41 40 40 40 40 40 40 39 38 37 37 36 35 35 35 35 35 35 35 35 35 34 33 32
28 28 29 29 29 30 32 34 35 35 35 35 35 36 36 36 36 36 37 37 38 38 36 35 35 35 35 35 35 35 36 35 36 36 36 36 36 36 36 36 35 35 36 35 35 35 36 36 37 37 38 38 38 39 39 40 41 41 41 42 41 41 40 40 40 40 40 40 40 39 38 37 36 36 35 35 35 35 36 35 35 35 34 34 33 32
28 29 30 30 31 32 34 35 37 37 36 34 34 35 36 36 37 38 38 38 38 37 37 36 35 35 35 35 35 35 36 36 36 36 36 36 36 36 36 36 35 35 36 35 35 35 36 36 37 37 38 38 38 39 39 40 41 41 41 41 41 40 40 40 40 40 40 40 39 39 38 37 36 35 35 35 35 36 36 35 35 35 34 33 32 31
28 29 30 31 33 33 34 35 36 37 37 37 37 38 38 38 38 38 39 38 38 38 37 36 36 35 35 35 35 35 35 36 36 35 35 35 36 36 36 36 35 35 36 35 35 35 36 36 37 37 38 38 38 38 39 40 40 41 41 41 40 40 40 40 40 40 40 40 39 38 37 36 36 35 35 35 36 36 36 35 35 35 34 33 32 31
28 29 29 30 32 34 36 37 37 36 37 39 40 40 40 39 38 39 39 39 39 38 37 36 36 36 36 36 35 35 35 36 36 35 35 35 36 36 36 36 35 35 35 35 35 35 36 36 37 37 37 38 38 38 39 40 40 40 40 40 40 40 40 40 40 40 39 39 39 38 37 36 35 35 35 35 35 35 35 35 35 34 34 33 32 31
Wind_Direction
308 308 309 304 299 299 300 297 294 294 292 286 286 289 288 288 290 290 287 283 286 292 292 290 287 286 286 286 286 286 289 289 288 289 290 291 291 291 292 292 292 292 292 293 294 293 294 293 293 293 292 293 292 292 292 292 292 291 290 288 287 287 287 285 284 283 282 281 281 280 279 278 277 277 277 276 277 277 277 277 277 277 276 276 276 275
311 313 310 306 298 298 304 302 300 303 303 297 291 292 295 292 290 292 289 287 290 292 290 290 292 292 292 290 289 287 289 290 288 289 290 290 292 292 292 292 292 293 293 293 294 294 294 294 294 294 294 294 294 294 294 294 293 292 291 290 289 289 288 287 285 284 283 282 281 280 279 279 278 277 277 277 277 277 277 277 277 277 276 276 276 276
314 315 310 309 302 300 308 309 307 306 303 300 295 291 296 297 291 292 296 296 296 293 289 290 295 297 296 295 293 291 292 292 290 290 290 290 292 292 292 292 292 293 293 293 294 294 294 295 295 295 295 296 296 295 295 294 294 293 293 292 291 290 290 289 288 287 285 284 283 282 280 279 279 278 278 278 278 277 277 277 277 277 277 276 276 276
313 313 310 310 308 309 315 315 313 309 304 303 301 296 297 300 295 291 296 300 300 298 292 293 299 299 299 301 302 300 298 297 294 294 294 293 293 293 293 294 294 294 295 295 296 296 296 296 296 296 296 296 296 296 296 295 295 294 294 293 292 291 291 291 290 289 288 286 285 284 283 282 281 280 279 279 279 279 278 278 278 278 278 277 277 277
321 314 312 313 316 319 319 318 319 314 309 306 304 303 301 299 297 295 294 297 307 308 299 300 306 300 298 301 303 305 305 303 301 300 301 299 298 299 298 298 298 298 298 298 298 298 297 297 296 296 296 296 296 296 295 295 295 294 294 294 293 293 293 292 291 291 290 288 287 286 285 283 283 282 281 281 280 280 280 279 280 280 279 279 278 278
331 322 320 321 324 329 325 323 325 319 316 315 309 306 304 299 300 300 294 299 311 307 298 302 309 305 304 304 304 309 311 309 308 306 305 304 303 303 302 302 302 303 302 301 301 300 298 298 297 297 297 296 296 296 296 296 295 295 295 294 294 294 294 293 293 292 291 289 288 287 286 285 284 283 283 282 281 281 280 280 280 280 279 279 279 279
339 336 339 340 340 345 346 341 337 337 338 331 323 321 318 309 304 296 292 304 311 306 303 304 308 312 313 310 308 312 314 312 313 311 307 306 306 305 305 306 306 307 307 306 305 303 302 301 300 299 299 298 298 298 298 298 298 297 297 296 295 295 294 294 293 293 291 290 289 288 287 286 285 284 283 283 282 282 281 281 281 280 279 280 280 279
353 354 2 5 5 6 5 359 349 353 358 342 337 339 329 321 313 301 300 307 308 314 319 311 309 316 315 313 314 315 315 314 314 313 310 308 306 306 308 309 309 310 311 311 310 307 305 304 304 303 301 301 301 301 301 301 301 300 300 299 298 297 296 296 295 294 292 291 290 289 288 287 286 285 284 283 282 282 281 281 281 280 280 280 280 279
9 12 15 17 17 13 8 359 349 357 359 339 339 341 331 328 323 320 323 317 314 320 318 307 306 313 312 316 320 317 315 315 312 311 311 308 306 308 309 310 311 313 313 313 313 310 308 308 307 306 305 305 304 304 304 304 304 303 302 301 301 300 299 298 297 296 295 293 291 290 289 288 287 286 285 284 283 282 282 282 281 281 280 280 280 280
19 20 20 21 17 6 356 349 349 1 352 335 341 343 337 338 333 331 330 321 321 320 311 306 304 309 312 314 316 315 314 313 312 313 312 308 307 309 311 312 313 315 316 315 314 312 311 311 310 310 308 307 307 306 306 306 306 305 305 304 303 302 301 301 300 299 297 296 294 292 291 289 288 287 286 285 284 283 283 282 282 281 281 281 281 280
14 12 14 17 10 356 347 345 351 357 346 340 347 345 337 337 335 331 327 324 328 319 310 308 307 308 313 313 312 313 315 315 316 317 315 310 309 309 311 313 314 316 317 316 315 314 313 313 313 312 310 309 308 307 307 307 308 308 307 307 306 305 304 303 303 302 300 299 297 295 293 292 291 289 288 286 285 284 283 283 282 282 282 281 281 280
12 12 8 5 1 357 354 350 349 350 349 348 347 344 338 332 330 330 327 328 328 316 310 312 314 310 308 310 311 310 314 318 317 316 314 310 308 309 311 313 315 316 317 317 316 314 314 314 313 312 311 310 308 307 307 308 308 309 309 308 308 307 306 305 305 304 303 301 300 298 296 295 293 292 290 288 287 286 285 284 283 283 282 282 281 281
10 8 0 355 357 1 0 352 347 346 349 349 345 347 344 333 331 327 322 324 319 312 314 317 318 312 304 308 311 308 312 317 315 314 312 308 307 308 310 313 315 317 317 316 315 314 314 313 313 312 311 310 309 307 308 308 309 310 310 310 309 309 308 307 306 306 305 304 302 301 299 297 296 294 292 290 289 287 286 285 284 284 283 282 282 281
1 356 357 357 354 356 358 353 347 342 344 345 343 345 341 335 334 322 317 323 318 312 315 317 315 311 310 313 314 312 313 316 316 316 313 308 307 308 310 313 315 316 316 316 315 314 314 313 313 312 311 311 310 308 308 308 309 310 310 310 310 310 309 308 307 307 306 305 304 303 301 300 298 296 294 292 290 288 287 286 285 284 284 283 282 282
2 352 353 356 351 350 352 349 344 340 341 341 341 343 337 331 328 319 316 318 316 313 315 316 314 311 313 316 316 316 317 317 317 317 316 313 310 311 313 314 315 315 315 316 316 314 313 313 312 312 311 311 310 308 308 308 309 310 311 311 311 311 310 309 309 308 307 306 305 304 303 302 301 298 296 294 292 290 289 288 287 286 285 284 284 283
360 346 343 349 349 351 348 341 341 344 341 338 341 343 334 326 321 318 314 310 313 317 316 315 312 310 312 314 316 319 319 316 315 315 316 314 312 313 313 313 313 314 315 316 316 315 313 312 312 312 312 311 310 309 308 308 309 310 311 312 312 312 311 311 310 309 308 307 306 306 305 304 302 300 298 295 294 292 291 290 288 287 287 286 285 285
356 345 341 345 348 351 348 342 343 343 338 337 342 338 328 323 322 320 316 316 321 320 316 315 313 314 316 316 318 321 318 315 313 312 311 311 312 312 311 311 311 312 314 315 315 314 313 312 312 312 312 311 310 309 309 309 310 311 312 313 313 313 312 312 311 310 309 309 308 307 307 306 304 302 300 298 296 295 293 292 290 289 289 288 287 286
354 346 340 342 342 341 343 344 343 342 339 339 338 333 330 328 327 324 321 323 326 319 314 315 313 314 317 316 318 320 316 313 311 309 309 310 310 309 308 309 310 311 314 315 315 314 314 313 313 312 312 311 311 311 310 310 311 312 313 313 314 314 313 313 312 312 311 310 309 309 308 307 305 303 302 300 298 297 296 294 293 292 291 290 289 288
353 347 339 339 340 337 339 340 336 336 339 338 334 333 335 331 324 324 324 322 323 318 316 316 315 313 312 312 316 316 312 310 310 310 310 309 307 306 306 308 309 311 314 315 316 315 315 314 313 313 313 312 312 312 312 312 312 313 313 314 314 314 314 314 313 313 312 311 310 310 309 308 306 305 303 302 300 299 297 296 295 294 292 291 290 290
348 347 338 337 338 336 338 338 332 331 334 335 334 335 336 330 321 321 321 318 318 317 317 319 321 317 311 312 314 311 309 309 310 312 312 307 305 306 307 308 310 312 314 316 317 317 315 314 314 313 314 314 314 314 313 313 313 313 314 314 315 315 315 315 314 314 313 312 311 311 310 309 307 306 304 303 302 300 299 298 297 296 294 293 292 291
345 344 335 335 339 336 334 333 330 329 330 332 333 334 333 331 325 321 318 316 317 317 317 319 320 316 313 315 313 310 310 309 310 312 312 308 307 308 308 310 311 313 314 316 317 317 316 315 315 314 314 315 315 315 314 313 313 313 314 314 315 315 316 316 315 314 314 313 312 311 311 309 308 307 306 304 303 302 301 300 298 297 296 295 294 293
343 340 333 333 336 334 329 328 327 326 327 329 329 329 330 330 329 324 319 316 317 315 314 316 316 314 315 317 315 313 312 310 310 311 311 310 309 309 310 311 312 314 315 316 318 318 317 317 316 315 315 315 315 314 314 313 313 313 314 314 315 316 316 316 315 315 314 314 313 312 311 310 309 308 307 306 304 303 302 301 300 299 298 296 295 295
340 340 335 331 331 330 328 328 329 328 329 330 327 326 329 330 330 324 316 315 317 316 314 316 315 315 317 318 316 314 312 312 312 311 310 310 311 311 312 313 314 315 316 317 318 318 318 317 316 315 315 315 314 314 313 313 313 313 314 315 315 316 316 316 316 315 314 314 313 313 312 311 310 309 308 307 306 305 304 303 301 300 299 298 297 296
339 339 335 331 330 331 330 330 330 331 332 329 325 325 326 326 326 321 313 313 315 314 315 317 315 316 319 319 316 314 314 315 314 311 310 311 312 313 313 313 315 316 317 317 318 318 318 317 316 316 315 315 314 314 313 312 312 313 314 315 315 315 316 316 316 315 315 314 314 313 313 312 311 310 309 308 307 306 305 304 303 302 301 300 299 298
338 337 337 335 335 335 335 333 331 329 328 324 322 323 323 325 328 324 317 316 315 312 314 316 312 315 321 322 318 317 318 317 314 311 311 312 312 313 314 314 315 316 317 317 318 318 318 317 317 316 316 315 315 314 314 313 313 313 314 315 315 315 316 316 316 315 315 315 314 314 313 313 312 310 309 309 308 307 306 305 304 303 302 301 300 299
337 336 338 337 334 333 332 330 328 326 325 323 322 321 321 322 323 321 319 317 313 312 314 312 310 315 321 322 320 320 319 317 314 312 312 312 312 313 314 315 316 316 316 316 317 318 318 318 317 316 316 316 316 315 315 314 314 314 315 315 315 316 316 316 316 316 315 315 314 314 314 313 312 311 310 309 309 308 307 306 305 304 303 302 301 301
340 337 335 333 328 325 324 323 324 326 323 320 320 318 317 318 320 322 319 312 309 312 312 308 309 315 318 320 321 320 319 317 316 314 312 312 312 313 314 315 316 316 316 316 318 318 318 318 318 317 317 317 317 317 316 315 315 315 316 316 316 316 316 316 316 316 316 315 315 315 314 313 313 312 311 310 309 309 308 307 306 305 304 303 302 301
342 335 333 331 325 323 323 322 323 324 319 315 316 316 314 315 317 317 311 307 311 314 311 310 313 314 315 319 321 320 319 319 318 316 314 312 312 313 315 316 315 315 316 317 318 318 318 318 318 317 317 318 318 317 317 317 317 317 317 316 316 317 317 317 317 317 316 316 315 315 314 314 313 312 312 311 310 309 309 308 307 306 305 304 303 302
342 334 332 333 327 324 324 322 321 321 318 316 314 313 313 312 311 308 305 306 309 307 307 312 315 313 314 319 320 319 320 319 318 317 316 315 315 315 316 316 315 315 315 316 317 318 318 318 318 318 318 318 318 318 318 319 318 318 317 317 317 317 318 318 318 317 317 316 316 315 315 314 314 313 312 311 311 310 309 309 308 307 306 305 304 303
341 335 334 335 331 327 325 323 322 322 320 319 315 312 312 310 306 304 306 307 305 302 304 310 311 311 314 318 318 318 318 318 319 320 319 317 316 316 316 316 315 315 316 316 317 318 318 318 318 318 318 319 319 319 320 320 319 319 318 318 318 318 318 318 318 318 317 317 316 316 315 315 314 313 312 312 311 311 310 309 308 308 307 306 305 304
340 336 337 340 335 330 329 329 328 325 322 320 317 315 313 312 309 308 309 310 308 305 307 310 310 311 315 317 316 317 319 320 320 319 318 317 317 317 317 316 316 316 316 317 317 318 319 319 319 318 318 319 319 320 321 321 320 319 319 319 319 319 319 319 319 318 318 317 317 316 316 315 314 313 313 312 312 311 310 310 309 309 308 307 306 305
341 337 339 342 337 331 333 336 332 329 326 322 318 316 315 314 315 314 313 312 309 309 311 313 312 313 317 319 318 318 319 319 318 317 317 318 318 318 317 316 317 317 317 317 318 318 319 319 318 318 318 319 320 321 322 321 321 320 319 320 320 320 320 320 319 319 318 318 318 317 317 316 315 314 313 313 312 311 311 310 310 310 309 308 307 306
342 340 339 340 336 332 335 338 334 332 330 326 322 321 318 317 317 317 316 312 309 311 313 312 312 315 320 322 320 319 319 318 317 317 317 318 319 319 318 317 317 317 317 318 318 319 319 319 318 318 319 320 321 322 322 322 321 321 320 320 321 321 321 320 320 320 319 319 318 318 317 317 316 315 314 313 313 312 312 312 311 311 310 309 309 308
344 342 338 337 336 332 334 337 336 334 332 329 328 327 323 320 317 315 315 313 311 313 313 312 314 317 319 319 318 318 318 317 318 318 318 319 320 319 318 318 318 318 318 318 319 319 319 319 319 319 320 321 322 323 323 323 322 322 321 322 322 321 321 321 321 320 320 319 319 318 318 318 317 316 315 314 313 313 313 313 312 312 311 311 310 309
344 342 338 337 336 333 336 341 340 335 330 327 329 328 325 324 321 319 318 316 313 312 311 312 314 314 314 315 315 316 316 317 319 319 319 319 319 319 319 318 318 319 319 319 319 319 319 319 320 320 321 322 323 323 323 323 323 323 322 322 322 322 322 321 321 321 320 320 319 319 319 319 318 317 315 315 314 314 314 314 313 313 312 312 312 311
345 342 339 337 336 335 339 343 338 331 328 328 330 330 328 329 328 325 322 318 316 315 314 313 313 313 314 314 314 315 317 318 319 318 317 317 318 318 319 319 319 319 319 319 319 319 319 319 320 320 321 322 323 324 324 324 324 323 323 323 323 322 322 322 322 321 321 320 320 320 320 319 318 317 316 316 315 315 315 315 314 314 314 313 313 312
348 345 340 338 338 338 337 334 331 332 333 333 335 334 331 330 329 327 324 323 322 320 317 317 316 315 314 314 315 317 319 320 320 319 317 317 318 318 319 319 320 319 319 319 319 319 319 320 321 321 322 323 323 324 324 325 324 324 323 323 323 323 323 322 322 321 321 321 321 321 321 320 319 318 317 317 316 316 316 316 316 316 315 314 314 313
349 345 341 339 339 339 337 334 336 339 338 335 333 332 332 331 331 330 327 326 325 321 316 317 317 316 315 315 316 320 322 322 321 320 319 319 319 320 319 319 319 319 319 319 319 320 321 321 322 322 323 323 324 324 325 325 325 325 324 324 324 324 323 323 322 322 322 322 322 322 321 321 319 319 318 318 317 317 317 317 317 317 316 316 315 314
350 348 346 341 337 337 336 334 337 337 333 333 332 332 333 332 332 332 328 326 326 323 319 318 317 315 315 315 316 321 323 321 320 320 320 320 320 320 320 319 319 319 319 319 320 320 321 321 322 323 323 323 324 325 326 326 326 325 324 324 324 324 323 323 322 322 322 322 322 322 322 321 320 319 319 319 318 318 318 318 318 318 318 317 316 316
348 347 347 341 335 335 334 332 332 331 329 332 333 333 333 332 333 333 328 325 326 324 321 319 317 316 315 315 317 320 320 317 318 320 320 320 319 319 319 319 319 319 319 320 320 320 321 322 322 323 323 323 324 325 326 326 326 325 325 325 325 324 324 323 323 323 323 323 323 323 322 322 321 320 320 319 319 319 319 319 319 319 319 318 318 318
347 346 345 340 337 336 333 330 330 329 331 335 336 335 334 333 333 330 324 324 325 323 321 319 317 316 316 315 316 317 315 313 316 318 319 319 319 319 318 318 319 319 319 320 320 321 321 321 322 322 323 324 324 325 326 326 326 326 326 326 325 325 325 324 324 324 324 323 324 323 323 322 321 321 320 320 320 320 320 320 320 320 320 320 319 319
347 347 345 343 341 339 336 333 332 331 335 341 340 336 334 332 329 324 323 324 325 322 321 319 316 317 317 315 313 313 313 314 315 317 318 318 319 319 319 318 319 319 320 320 320 320 321 321 322 322 323 324 325 325 326 327 326 326 326 326 326 326 326 325 324 324 324 324 324 324 323 323 322 321 321 320 320 320 320 321 321 321 321 321 320 320
346 346 343 342 342 341 340 339 337 334 335 340 340 335 332 328 324 322 323 324 323 321 321 319 317 317 317 315 314 313 314 316 316 316 317 318 318 319 319 318 318 319 319 320 320 320 320 321 321 322 323 324 325 325 326 327 327 327 327 327 327 327 326 326 325 325 324 324 324 324 324 323 322 321 321 321 321 321 320 321 321 321 321 321 321 320
346 345 342 340 341 342 339 337 337 335 333 334 334 331 327 322 320 321 323 323 322 321 321 319 318 318 317 316 315 315 315 316 316 317 317 318 318 319 318 318 318 318 319 319 319 319 320 321 321 323 323 324 325 326 326 327 327 327 327 327 328 328 327 326 326 325 325 325 325 325 324 324 323 322 321 321 321 321 321 321 321 321 321 321 321 320
343 343 342 338 338 338 335 331 333 335 334 331 327 325 322 320 320 321 321 321 321 320 320 319 319 318 317 317 317 317 316 316 317 317 317 317 318 318 318 318 318 318 318 319 319 320 320 321 322 323 323 324 325 325 326 327 327 327 327 328 329 329 328 327 326 326 326 326 325 325 325 324 323 322 322 321 321 321 321 321 321 321 321 321 321 320
340 342 343 341 339 337 334 331 331 331 330 327 325 323 322 321 322 322 321 321 320 320 319 319 319 318 318 318 317 317 317 317 317 317 317 317 318 318 318 318 318 318 319 319 319 320 321 321 322 323 323 324 325 325 326 327 327 327 328 329 330 329 329 328 327 326 326 326 326 326 325 324 324 323 322 322 322 321 321 321 321 321 321 320 320 320
342 342 341 340 339 338 337 337 337 333 330 329 327 325 323 323 322 323 322 322 321 321 320 320 319 319 318 318 317 317 317 317 317 317 317 318 318 318 318 318 318 318 318 319 319 320 321 321 322 323 323 324 324 326 327 327 327 328 329 330 330 330 329 328 327 327 327 327 327 326 326 325 324 323 323 322 322 322 322 321 321 321 320 320 320 319
342 342 340 338 337 335 333 334 334 331 328 328 327 326 325 325 324 324 323 323 323 322 321 320 320 319 318 318 317 317 317 318 317 317 318 318 318 318 319 318 318 318 318 319 319 320 321 321 322 323 323 324 325 326 327 327 328 328 329 330 330 330 329 328 328 328 327 327 327 327 326 325 325 324 323 323 323 322 322 322 321 320 320 320 320 319
341 340 338 338 337 335 334 333 333 332 331 331 329 328 328 326 325 324 324 324 324 323 322 321 320 319 319 318 318 318 318 317 318 317 317 318 318 319 319 319 319 319 318 319 319 320 321 321 322 323 323 324 325 327 327 328 328 329 330 331 331 331 330 329 329 328 328 328 328 327 327 326 325 325 324 324 323 323 322 322 321 320 320 320 319 319
339 337 338 339 337 336 336 336 335 334 334 333 331 329 328 327 326 325 324 324 324 323 322 321 321 320 319 318 318 318 318 318 318 318 318 318 318 319 319 319 319 319 319 319 320 320 321 322 322 323 323 324 326 327 327 328 329 329 330 331 331 331 330 329 329 329 329 329 329 328 327 327 326 326 325 325 324 324 323 322 321 320 320 319 319 318
335 334 336 337 334 332 332 332 331 331 330 330 330 329 328 328 326 325 323 323 323 323 323 322 321 321 320 319 318 318 318 318 318 318 318 318 318 319 319 320 319 319 319 319 320 320 321 322 323 323 324 324 326 327 328 328 329 330 331 331 331 331 330 330 330 330 330 330 329 329 328 327 327 326 326 326 326 326 325 324 323 321 320 319 319 319